User: anonymous   Login
Location: Unspecified
(0.0000°N, 0.0000°E)
Time: 03:39:41
(UTC+00:00)
Language:

NOSS 2-1 (D) - Orbit

View from above orbital plane
View from above orbital plane
View from above satellite
View from above satellite

Ground track
Ground track

The orbit data is extracted from the following two-line orbital elements,

1 20692U 90050D   17168.91054764 0.00000030  00000-0  77740-5 0    08
2 20692  63.3450 191.2302 0788000  31.8882 328.1118 13.41691610    09
Epoch (UTC): 17 June 2017 21:51:11
Eccentricity: 0.0788000
inclination: 63.3450°
perigee height: 513 km
apogee height: 1692 km
right ascension of ascending node: 191.2302°
argument of perigee: 31.8882°
revolutions per day: 13.41691610
mean anomaly at epoch: 328.1118°
orbit number at epoch: 0

The dashed part of the orbit path shows where the satellite is in the earth's shadow,  

DLR